Location: Ash Shall?l al Awwal
(24.0167°N, 32.8667°E)
Time: 03:25:54
(UTC+00:00)

Cosmos 2322 - Pass Details

Date: 02 March 2021
Orbit: 841 x 853 km, 71.0° (Epoch: 12 April)

Event Time Altitude Azimuth Distance (km) Brightness Sun altitude
Rises 16:25:21 0° 173° (S) 3,403 6.8 -8.4°
Reaches altitude 10° 16:28:03 10° 163° (SSE) 2,471 6.0 -9.1°
Maximum altitude 16:32:57 30° 103° (ESE) 1,467 4.4 -10.2°
Drops below altitude 10° 16:37:52 10° 43° (NE) 2,481 5.7 -11.3°
Sets 16:40:34 0° 33° (NNE) 3,419 6.5 -11.9°
